User: anonymous   Login
Location: Dyersburg
(36.0438°N, 89.3789°W)
Time: 21:21:49
(UTC+00:00)
Language:

Explorer 7 - Orbit

View from above orbital plane
View from above orbital plane
View from above satellite
View from above satellite

Ground track
Ground track

The orbit data is extracted from the following two-line orbital elements,

1    22U 59009A   20047.78983815 -.00000033 +00000-0 +20927-4 0  9990
2    22 050.2846 312.8763 0139690 153.9163 206.8910 14.95038812452173
Epoch (UTC): 16 February 2020 18:57:22
Eccentricity: 0.0139690
inclination: 50.2846°
perigee height: 485 km
apogee height: 679 km
right ascension of ascending node: 312.8763°
argument of perigee: 153.9163°
revolutions per day: 14.95038812
mean anomaly at epoch: 206.8910°
orbit number at epoch: 45217

The dashed part of the orbit path shows where the satellite is in the earth's shadow,  

DLR